Wind_Speed
20 13 11 11 11 13 13 10 11 11 9 7 7 5 5 4 5 7 7 7 7 8
15 15 14 13 12 12 11 11 12 10 8 7 6 5 5 4 5 5 6 6 6 8
16 12 11 11 13 11 10 10 9 8 7 6 6 5 4 5 5 4 6 6 6 7
13 12 12 12 11 11 11 10 9 7 7 5 5 6 6 6 5 7 6 7 7 8
11 11 11 9 10 10 9 9 8 8 8 8 8 8 6 6 7 7 7 7 8 8
12 11 11 12 11 11 10 9 9 9 9 8 8 6 7 7 7 7 7 7 8 9
12 12 12 11 11 11 10 9 9 8 7 7 6 7 7 8 7 7 8 8 8 9
11 11 11 11 10 9 9 8 8 7 7 7 7 7 7 7 7 8 8 8 9 8
10 10 11 9 8 8 8 8 8 8 8 9 8 10 10 11 8 9 9 8 7 8
10 9 9 9 10 10 10 8 8 8 8 8 8 12 11 10 9 8 9 9 10 11
10 10 10 10 10 9 8 9 9 10 10 10 11 13 10 9 9 10 12 13 13 14
10 9 9 9 10 10 10 10 10 10 11 11 9 11 9 10 10 12 14 15 15 16
10 10 10 10 10 10 11 11 10 10 10 10 11 11 12 12 11 13 15 16 17 18
10 10 10 10 10 9 8 9 9 10 10 11 11 11 14 15 16 16 16 17 17 18
Wind_Direction
221 191 196 202 200 206 210 211 203 207 208 214 232 226 228 224 238 236 243 242 244 255
216 201 195 205 206 210 207 209 212 204 213 216 225 221 216 231 233 247 253 249 250 255
212 201 211 210 208 206 203 205 207 213 210 218 223 228 226 229 233 247 251 256 257 260
205 202 197 201 201 206 210 208 205 213 218 212 221 231 226 232 241 242 249 253 257 259
198 192 192 199 200 203 205 208 209 214 216 213 221 224 235 239 242 247 251 258 262 266
192 192 196 199 197 201 201 205 207 213 217 221 227 235 243 249 259 266 267 263 258 260
190 194 195 195 200 205 207 209 212 220 228 232 239 245 246 251 260 264 262 257 259 260
188 190 192 199 203 209 213 217 221 226 233 238 241 245 248 259 263 260 264 260 257 259
190 194 200 204 207 212 219 222 224 231 236 242 255 255 259 251 248 255 256 260 263 266
197 201 205 205 207 213 219 225 231 240 243 248 247 256 254 251 246 253 261 267 269 268
203 206 207 210 217 225 227 228 231 236 239 239 236 246 246 247 259 263 264 266 269 272
207 212 214 219 224 226 226 227 229 232 233 236 240 260 255 256 266 270 273 277 277 273
212 214 219 222 222 219 219 225 226 236 248 251 250 254 260 264 274 273 275 273 271 270
209 214 215 214 213 218 225 237 239 247 248 251 255 256 264 270 267 262 271 271 270 269
Height
813 804 807 812 814 817 819 820 820 821 822 821 824 821 824 824 826 827 826 826 826 828
807 803 802 807 810 814 817 817 817 819 821 821 822 821 822 823 824 825 826 825 824 825
803 799 801 806 811 813 815 816 818 818 818 819 820 821 820 822 821 822 823 823 822 822
796 798 801 806 809 811 813 814 814 817 818 817 819 820 819 819 819 819 819 819 819 819
796 798 800 804 807 809 811 811 812 814 816 815 817 817 817 816 817 816 816 817 818 817
793 795 798 802 804 807 809 809 810 813 814 814 814 814 815 816 816 817 814 816 815 816
791 794 798 800 803 805 807 808 809 810 812 813 813 813 814 814 813 812 813 813 813 813
790 794 796 799 801 803 805 806 808 809 810 812 812 812 812 811 811 812 812 810 811 809
790 793 795 796 799 802 803 805 805 807 809 809 809 808 808 808 809 809 808 808 806 805
789 791 793 796 798 800 801 802 803 805 806 806 806 805 805 805 805 805 804 804 804 803
788 790 792 794 796 798 799 800 801 802 802 802 802 801 801 800 800 800 800 800 800 799
785 787 790 792 793 795 796 797 798 799 799 799 798 797 796 796 797 797 796 796 795 795
783 785 786 788 790 792 793 794 794 794 794 793 793 793 793 793 793 792 792 791 791 790
780 782 785 786 787 788 789 790 790 790 790 789 789 789 789 789 788 788 787 786 785 784